Location: Canet
(43.3261°N, 5.3723°E)
Time: 18:47:17
(UTC+00:00)

BlueWalker 3 - Visible Passes

Search period start: 08 December 2022 00:00
Search period end: 18 December 2022 00:00
Orbit: 501 x 518 km, 53.2° (Epoch: 08 December)

Date Brightness Start Highest point End Pass type
(mag) Time Alt. Az. Time Alt. Az. Time Alt. Az.
08 Dec 2.5 17:26:56 10° NW 17:30:39 40° NNE 17:31:50 31° ENE visible
08 Dec 4.8 19:05:42 10° WNW 19:06:41 16° WNW 19:06:41 16° WNW visible
09 Dec 2.4 17:08:31 10° NW 17:12:15 42° NNE 17:14:44 19° E visible
09 Dec 4.0 18:47:19 10° WNW 18:49:36 27° W 18:49:36 27° W visible
10 Dec 2.3 16:50:05 10° NW 16:53:51 44° NNE 16:57:35 10° ESE visible
10 Dec 3.5 18:28:56 10° WNW 18:32:26 32° SW 18:32:47 31° SW visible
11 Dec 2.3 16:31:39 10° NW 16:35:26 46° NNE 16:39:12 10° ESE visible
11 Dec 3.8 18:10:33 10° WNW 18:13:59 30° SW 18:16:18 16° S visible
12 Dec 4.0 17:52:09 10° WNW 17:55:31 28° SW 17:58:51 10° SSE visible
13 Dec 4.2 17:33:46 10° WNW 17:37:04 26° SW 17:40:19 10° S visible
14 Dec 4.4 17:15:23 10° WNW 17:18:36 24° SW 17:21:46 10° S visible
15 Dec 4.7 16:57:00 10° WNW 17:00:07 23° SW 17:03:13 10° S visible
16 Dec 4.9 16:38:36 10° W 16:41:38 22° SW 16:44:39 10° S visible
